[[{"header":{"parameterUnit":"m.s-1","parameterCategory":1,"la1":30.2991,"la2":30.254,"lo1":-89.0895,"lo2":-89.0444,"dy":0.0017,"dx":0.0017,"nx":28,"ny":28,"refTime":"2023-04-22T21:00:00:Z","depth":0,"parameterNumber":2,"parameterNumberName":"U-component_of_WINDS"},"data":[0,0,0,0,0,0,0,0,0,0,0,0,0,0,0,0,0,0,0,0,0,0,0,0,0,0,0,0,0,0,0,0,0,0,0,0,0,0,0,0,0,0,0,0,0,0,0,0,0,0,0,0,0,0,0,0,0,0,-3.0738,-3.0738,0,-3.0776,-3.0776,-3.0777,-3.07,-3.0697,-3.0695,-3.0692,-3.0732,-3.0735,-3.0738,0,0,0,0,0,0,0,0,0,0,0,0,0,-3.0598,-3.0601,-3.0738,-3.0738,-3.0739,-3.0776,-3.0776,-3.0777,-3.07,-3.0697,-3.0694,-3.0691,-3.0731,-3.0735,-3.0739,0,0,0,0,0,0,0,0,0,0,0,0,0,-3.065,-3.0602,-3.0738,-3.0705,-3.0702,-3.0776,-3.0776,-3.0777,-3.0701,-3.0697,-3.0693,-3.069,-3.0729,-3.0734,-3.0739,-3.0847,0,0,-3.0755,-3.0757,0,0,0,0,0,0,0,0,-3.0647,-3.0655,-3.0709,-3.0707,-3.0705,-3.0729,-3.0741,-3.08,-3.0702,-3.0701,-3.0692,-3.0688,-3.0734,-3.0738,-3.0754,-3.0848,-3.085,-3.0755,-3.0758,-3.0761,-3.0762,0,0,0,0,0,0,0,-3.0643,-3.0653,-3.0753,-3.071,-3.0707,-3.0688,-3.0691,-3.0752,-3.0739,-3.0701,-3.0696,-3.0701,-3.0732,-3.0749,-3.0754,-3.0851,-3.0755,-3.076,-3.0763,-3.0765,-3.1034,-3.1038,0,0,0,0,0,0,-3.0644,-3.065,-3.0752,-3.0754,-3.0666,-3.0694,-3.0697,-3.0725,-3.0738,-3.0736,-3.0704,-3.0697,-3.0742,-3.0748,-3.0755,-3.0882,-3.0761,-3.0765,-3.0768,-3.103,-3.1035,-3.1039,0,0,0,0,0,0,-3.0641,-3.0654,-3.075,-3.0701,-3.0711,-3.07,-3.0732,-3.0728,-3.0745,-3.074,-3.0737,-3.0725,-3.074,-3.0748,-3.0824,-3.0882,-3.0768,-3.0772,-3.1025,-3.1032,-3.1037,-3.1136,0,0,0,0,0,0,-3.0637,-3.0653,-3.0694,-3.0702,-3.0714,-3.0819,-3.0736,-3.0731,-3.0754,-3.0745,-3.0758,-3.0757,-3.0737,-3.0817,-3.0829,-3.0887,-3.0776,-3.102,-3.1028,-3.1035,-3.1128,-3.1145,-3.116,0,0,0,0,0,-3.0633,-3.0721,-3.0697,-3.0709,-3.0766,-3.0823,-3.083,-3.0805,-3.0759,-3.08,-3.0796,-3.0756,-3.0873,-3.0826,-3.0839,-3.0899,-3.1016,-3.1026,-3.1035,-3.112,-3.1141,-3.1159,0,0,0,0,0,0,-3.0721,-3.0721,-3.0695,-3.0788,-3.0806,-3.081,-3.0861,-3.0828,-3.086,-3.0851,-3.0819,-3.0822,-3.0905,-3.0909,-3.0856,-3.1003,-3.0937,-3.0949,-3.0998,-3.1018,-3.1033,-3.1031,-3.0781,0,0,0,0,0,-3.0751,-3.0797,-3.0795,-3.0878,-3.0888,-3.0873,-3.0897,-3.0876,-3.0893,-3.0901,-3.0903,-3.0921,-3.0962,-3.0989,-3.1027,-3.1127,-3.1129,-3.1175,-3.119,-3.1204,-3.1215,-3.1268,-3.1289,-3.107,-3.107,-3.1069,0,0,-3.0814,-3.082,-3.0851,-3.0895,-3.0907,-3.0955,-3.088,-3.0935,-3.097,-3.0909,-3.0981,-3.0983,-3.1001,-3.109,-3.1129,-3.1096,-3.1276,-3.1215,-3.1226,-3.123,-3.128,-3.1301,-3.1319,-3.1076,-3.1075,-3.1074,0,0,-3.0954,-3.0963,-3.1033,-3.1045,-3.1063,-3.1052,-3.1069,-3.1077,-3.1076,-3.1148,-3.1103,-3.1144,-3.1215,-3.123,-3.1247,-3.139,-3.1354,-3.1403,-3.1487,-3.1539,-3.1556,-3.1571,-3.1623,-3.1642,-3.1414,-3.1414,-3.1414,0,-3.1031,-3.1102,-3.1073,-3.1131,-3.1151,-3.1097,-3.1167,-3.118,-3.121,-3.1225,-3.1187,-3.1274,-3.1283,-3.1374,-3.1409,-3.1424,-3.1442,-3.1402,-3.1556,-3.1571,-3.1585,-3.1634,-3.1653,-3.142,-3.1419,-3.1419,-3.1418,0,-3.1196,-3.1246,-3.13,-3.1329,-3.1355,-3.1419,-3.1399,-3.1429,-3.1405,-3.1398,-3.1471,-3.1479,-3.1517,-3.1536,-3.1514,-3.1624,-3.1603,-3.1561,-3.1495,-3.1612,-3.1658,-3.1676,-3.1428,-3.1426,-3.1424,-3.1423,0,0,-3.1395,-3.1406,-3.1426,-3.1439,-3.1453,-3.1491,-3.1552,-3.1588,-3.1615,-3.1636,-3.1686,-3.1746,-3.1707,-3.1726,-3.1704,-3.175,-3.1864,-3.1702,-3.1702,-3.1733,-3.1986,-3.2019,-3.2041,-3.1839,-3.1842,-3.1845,-3.1985,0,-3.1535,-3.164,-3.1614,-3.1718,-3.1764,-3.1711,-3.1764,-3.1778,-3.1773,-3.1811,-3.1804,-3.1847,-3.1792,-3.1803,-3.1845,-3.1841,-3.1914,-3.183,-3.1886,-3.1889,-3.1885,-3.2065,-3.21,-3.2232,-3.2002,-3.2005,-3.2007,0,-3.1713,-3.1741,-3.1849,-3.1855,-3.1874,-3.1922,-3.1952,-3.1989,-3.2003,-3.1996,-3.2016,-3.1985,-3.2044,-3.1976,-3.2057,-3.2,-3.2021,-3.2022,-3.2026,-3.2032,-3.1957,-3.2077,-3.2273,-3.2293,-3.2035,-3.2033,-3.2031,0,-3.185,-3.1913,-3.1986,-3.1998,-3.2007,-3.2042,-3.2047,-3.2058,-3.2081,-3.2107,-3.2122,-3.2155,-3.2173,-3.2199,-3.2178,-3.2129,-3.2263,-3.2192,-3.2258,-3.2259,-3.2291,-3.229,-3.2495,-3.2302,-3.2301,-3.2301,-3.2301,0,-3.201,-3.2079,-3.2048,-3.2093,-3.2168,-3.2137,-3.2212,-3.221,-3.222,-3.2264,-3.222,-3.2262,-3.223,-3.2269,-3.2252,-3.2322,-3.233,-3.2326,-3.2321,-3.2331,-3.2332,-3.2346,-3.2337,-3.2306,-3.2305,-3.2304,-3.2303,0,-3.2176,-3.2158,-3.2234,-3.2235,-3.2237,-3.2293,-3.2293,-3.2335,-3.2325,-3.2381,-3.2392,-3.2376,-3.242,-3.24,-3.2446,-3.2434,-3.2525,-3.2507,-3.252,-3.2516,-3.2584,-3.2579,-3.2807,-3.2835,-3.2623,-3.2625,-3.2626,0,-3.2281,-3.2332,-3.2338,-3.2364,-3.2372,-3.2415,-3.2438,-3.2408,-3.2433,-3.2453,-3.2492,-3.2531,-3.2562,-3.2633,-3.2626,-3.266,-3.2644,-3.2721,-3.2649,-3.2657,-3.2647,-3.2645,-3.265,-3.2737,-3.2739,-3.2741,-3.2743,0,-3.2468,-3.2456,-3.2491,-3.2523,-3.2551,-3.2575,-3.2594,-3.2618,-3.2589,-3.262,-3.2663,-3.2686,-3.2732,-3.2772,-3.2802,-3.2806,-3.2771,-3.2765,-3.2783,-3.2795,-3.2801,-3.2799,-3.2562,-3.2761,-3.2759,-3.2758,-3.2757,-3.2756,-3.2608,-3.2651,-3.2662,-3.2702,-3.2713,-3.2732,-3.2771,-3.2765,-3.2801,-3.2836,-3.2815,-3.2867,-3.2878,-3.2914,-3.2923,-3.2962,-3.2932,-3.2957,-3.2964,-3.2971,-3.298,-3.2793,-3.2967,-3.2967,-3.2966,-3.2966,-3.2966,0,-3.2795,-3.2798,-3.2835,-3.2864,-3.2895,-3.2856,-3.2875,-3.2904,-3.295,-3.2963,-3.2993,-3.3043,-3.3081,-3.3075,-3.311,-3.3142,-3.3126,-3.3152,-3.3151,-3.3152,-3.3005,-3.2987,-3.3164,-3.3164,-3.3164,-3.3164,-3.3164,-3.3164,-3.2896,-3.2967,-3.2956,-3.3031,-3.3034,-3.3084,-3.3098,-3.3115,-3.3125,-3.3183,-3.3214,-3.321,-3.3216,-3.3249,-3.3282,-3.3279,-3.3295,-3.3327,-3.3319,-3.3182,-3.3163,-3.3144,-3.3127,-3.333,-3.3331,-3.3462,-3.3464,-3.3465]},{"header":{"parameterUnit":"m.s-1","parameterCategory":1,"la1":30.2991,"la2":30.254,"lo1":-89.0895,"lo2":-89.0444,"dy":0.0017,"dx":0.0017,"nx":28,"ny":28,"refTime":"2023-04-22T21:00:00:Z","depth":0,"parameterNumber":3,"parameterNumberName":"V-component_of_WINDS"},"data":[0,0,0,0,0,0,0,0,0,0,0,0,0,0,0,0,0,0,0,0,0,0,0,0,0,0,0,0,0,0,0,0,0,0,0,0,0,0,0,0,0,0,0,0,0,0,0,0,0,0,0,0,0,0,0,0,0,0,-6.1139,-6.114,0,-6.1218,-6.1218,-6.1219,-6.1171,-6.1169,-6.1166,-6.1164,-6.1239,-6.1243,-6.1247,0,0,0,0,0,0,0,0,0,0,0,0,0,-6.0941,-6.0945,-6.1139,-6.114,-6.1141,-6.1217,-6.1219,-6.122,-6.1171,-6.1169,-6.1166,-6.1163,-6.1237,-6.1242,-6.1247,0,0,0,0,0,0,0,0,0,0,0,0,0,-6.1024,-6.0946,-6.1139,-6.1126,-6.1126,-6.1217,-6.1219,-6.122,-6.1172,-6.1169,-6.1165,-6.1162,-6.1236,-6.1242,-6.1248,-6.1354,0,0,-6.1266,-6.1269,0,0,0,0,0,0,0,0,-6.1019,-6.1031,-6.1127,-6.1127,-6.1127,-6.1181,-6.1176,-6.1265,-6.1173,-6.1154,-6.1164,-6.116,-6.1222,-6.1229,-6.1251,-6.1357,-6.136,-6.1267,-6.1271,-6.1273,-6.1275,0,0,0,0,0,0,0,-6.1013,-6.1027,-6.117,-6.1129,-6.1129,-6.1114,-6.1123,-6.1192,-6.1206,-6.1156,-6.1152,-6.1163,-6.1221,-6.1245,-6.1252,-6.1361,-6.1267,-6.1272,-6.1276,-6.1278,-6.1556,-6.156,0,0,0,0,0,0,-6.1009,-6.1023,-6.1167,-6.1172,-6.1064,-6.1121,-6.113,-6.1167,-6.1205,-6.1208,-6.1165,-6.116,-6.1236,-6.1245,-6.1255,-6.138,-6.1273,-6.1279,-6.1283,-6.1553,-6.1557,-6.1561,0,0,0,0,0,0,-6.1005,-6.1023,-6.1164,-6.1097,-6.1114,-6.1128,-6.117,-6.117,-6.1194,-6.1213,-6.1214,-6.1188,-6.1234,-6.1246,-6.1329,-6.1382,-6.1282,-6.1287,-6.1548,-6.1554,-6.1559,-6.1633,0,0,0,0,0,0,-6.1,-6.1022,-6.1064,-6.1098,-6.1118,-6.124,-6.1174,-6.1174,-6.1206,-6.12,-6.1234,-6.1236,-6.1232,-6.1321,-6.1336,-6.1389,-6.1292,-6.1544,-6.1551,-6.1557,-6.1625,-6.164,-6.1652,0,0,0,0,0,-6.0993,-6.108,-6.1066,-6.1084,-6.1171,-6.1243,-6.1254,-6.1249,-6.121,-6.1252,-6.1263,-6.1235,-6.1374,-6.1329,-6.1346,-6.1402,-6.154,-6.1549,-6.1557,-6.1619,-6.1637,-6.1652,0,0,0,0,0,0,-6.105,-6.1085,-6.1069,-6.1171,-6.1205,-6.1235,-6.1287,-6.1268,-6.1312,-6.1304,-6.1294,-6.1302,-6.1389,-6.1404,-6.1353,-6.1505,-6.1451,-6.1463,-6.1493,-6.1509,-6.1523,-6.1517,-6.1297,0,0,0,0,0,-6.1075,-6.1133,-6.1159,-6.1246,-6.1264,-6.1273,-6.1304,-6.1297,-6.1331,-6.1344,-6.1362,-6.1394,-6.1444,-6.1478,-6.1525,-6.1627,-6.1633,-6.1674,-6.1687,-6.1698,-6.1708,-6.1761,-6.1779,-6.1589,-6.1589,-6.1588,0,0,-6.1126,-6.1152,-6.1189,-6.1258,-6.1284,-6.1341,-6.1285,-6.1349,-6.1391,-6.1353,-6.1434,-6.1447,-6.1482,-6.1575,-6.1617,-6.159,-6.1762,-6.1709,-6.1717,-6.1721,-6.1772,-6.179,-6.1806,-6.1594,-6.1593,-6.1592,0,0,-6.1248,-6.1275,-6.135,-6.1376,-6.1416,-6.1421,-6.1439,-6.1473,-6.1481,-6.1561,-6.1534,-6.1583,-6.1671,-6.1696,-6.172,-6.1852,-6.1827,-6.1867,-6.1937,-6.1989,-6.2004,-6.2017,-6.2062,-6.2079,-6.1878,-6.1878,-6.1878,0,-6.1306,-6.1395,-6.139,-6.1456,-6.1486,-6.1457,-6.1531,-6.1556,-6.1609,-6.1629,-6.1599,-6.1708,-6.1729,-6.1827,-6.1859,-6.188,-6.1898,-6.1863,-6.2002,-6.2016,-6.2028,-6.2071,-6.2088,-6.1882,-6.1882,-6.1881,-6.1881,0,-6.1463,-6.1524,-6.1579,-6.1633,-6.1669,-6.1739,-6.1743,-6.178,-6.177,-6.1777,-6.1858,-6.1883,-6.1934,-6.1957,-6.1947,-6.2053,-6.2035,-6.2004,-6.1949,-6.2051,-6.209,-6.2107,-6.1889,-6.1887,-6.1886,-6.1885,0,0,-6.1623,-6.1673,-6.1693,-6.1716,-6.1758,-6.1804,-6.1871,-6.1924,-6.1955,-6.1991,-6.2046,-6.2121,-6.2092,-6.212,-6.2112,-6.2158,-6.2258,-6.2121,-6.2122,-6.2144,-6.2374,-6.2396,-6.2416,-6.2243,-6.2246,-6.2248,-6.237,0,-6.1747,-6.1867,-6.1864,-6.1975,-6.203,-6.2003,-6.2061,-6.2091,-6.21,-6.2146,-6.2155,-6.2208,-6.2167,-6.2183,-6.2227,-6.2237,-6.2304,-6.2228,-6.2291,-6.2293,-6.2282,-6.2437,-6.2461,-6.2575,-6.2386,-6.2389,-6.2391,0,-6.1908,-6.1952,-6.2069,-6.2101,-6.2124,-6.2177,-6.2223,-6.2269,-6.2302,-6.2304,-6.2336,-6.2321,-6.2386,-6.233,-6.2419,-6.2368,-6.2393,-6.2402,-6.2406,-6.241,-6.2348,-6.2444,-6.2611,-6.2628,-6.2416,-6.2414,-6.2412,0,-6.2011,-6.2099,-6.218,-6.2201,-6.2241,-6.2278,-6.2296,-6.2326,-6.2357,-6.2397,-6.2417,-6.2463,-6.2488,-6.2524,-6.2521,-6.2481,-6.261,-6.2554,-6.2612,-6.2613,-6.264,-6.2638,-6.2812,-6.2659,-6.2659,-6.2658,-6.2658,0,-6.2149,-6.2221,-6.2227,-6.2277,-6.2356,-6.2351,-6.2428,-6.2442,-6.2469,-6.2518,-6.2497,-6.2543,-6.2538,-6.2584,-6.2582,-6.2654,-6.2666,-6.2668,-6.2667,-6.267,-6.2669,-6.2685,-6.2677,-6.2663,-6.2662,-6.2661,-6.266,0,-6.2278,-6.2285,-6.2371,-6.2402,-6.2412,-6.2468,-6.2493,-6.2539,-6.2546,-6.2609,-6.2623,-6.2633,-6.2687,-6.2688,-6.2748,-6.2746,-6.2835,-6.2825,-6.2825,-6.2822,-6.2879,-6.2874,-6.3069,-6.3093,-6.2926,-6.2927,-6.2929,0,-6.2365,-6.242,-6.2457,-6.249,-6.2511,-6.2564,-6.2596,-6.2592,-6.2626,-6.2667,-6.2707,-6.2759,-6.28,-6.2885,-6.2896,-6.2942,-6.2932,-6.2997,-6.2938,-6.2939,-6.2931,-6.2927,-6.2932,-6.3008,-6.301,-6.3012,-6.3013,0,-6.2518,-6.2519,-6.2567,-6.2616,-6.2655,-6.2693,-6.2728,-6.2756,-6.2756,-6.2794,-6.285,-6.2882,-6.2944,-6.2994,-6.3038,-6.3054,-6.3033,-6.3032,-6.3047,-6.305,-6.3047,-6.3048,-6.2854,-6.3027,-6.3025,-6.3024,-6.3024,-6.3023,-6.2627,-6.2675,-6.2708,-6.2762,-6.2788,-6.2821,-6.2866,-6.2878,-6.2925,-6.2977,-6.2971,-6.3032,-6.3061,-6.3118,-6.3138,-6.3184,-6.316,-6.3183,-6.3189,-6.3194,-6.32,-6.3041,-6.3192,-6.3191,-6.3191,-6.3191,-6.319,0,-6.2778,-6.2798,-6.2848,-6.2899,-6.294,-6.2919,-6.2957,-6.2992,-6.3047,-6.3077,-6.3118,-6.318,-6.3229,-6.3244,-6.329,-6.3324,-6.3315,-6.3336,-6.3333,-6.3336,-6.3219,-6.32,-6.3342,-6.3342,-6.3342,-6.3342,-6.3342,-6.3342,-6.2861,-6.294,-6.2944,-6.3034,-6.3053,-6.3114,-6.3137,-6.3166,-6.319,-6.3262,-6.3303,-6.3313,-6.3336,-6.3384,-6.3427,-6.343,-6.3447,-6.3472,-6.347,-6.336,-6.3345,-6.333,-6.3312,-6.3476,-6.3476,-6.3584,-6.3585,-6.3586]}]]